Regional Weather Roundup
Issued by NWS

Home | Current Version | Previous Version | Text Only | Print | Product List | Glossary Off
Versions: 1 2 3 4 5 6 7 8 9 10 11 12 13 14 15 16 17 18 19 20 21 22 23 24 25 26 27 28 29 30 31 32 33 34 35 36 37 38 39 40 41 42 43 44 45 46 47 48 49 50

946
ASUS43 KFSD 270510
RWRSD

WEATHER ROUNDUP FOR SOUTH DAKOTA
NATIONAL WEATHER SERVICE SIOUX FALLS SD
1200 AM CDT THU APR 27 2017

NOTE: "FAIR" INDICATES FEW OR NO CLOUDS BELOW 12,000 FEET WITH NO
SIGNIFICANT WEATHER AND/OR OBSTRUCTIONS TO VISIBILITY.


SDZ001>005-009-010-012>017-270600-
NORTHWEST AND NORTH CENTRAL SOUTH DAKOTA

CITY           SKY/WX    TMP DP  RH WIND       PRES   REMARKS
BUFFALO          N/A     35  25  66 NE6       29.64F
FAITH            N/A     30  27  88 E9        29.71S WCI  22
MOBRIDGE       MOCLDY    33  25  72 NE8       29.72S WCI  26
$$

SDZ012>016-024>037-041>051-057-063-072>074-270600-
SOUTHWEST AND SOUTH CENTRAL SOUTH DAKOTA

CITY           SKY/WX    TMP DP  RH WIND       PRES   REMARKS
RAPID CTY ARPT CLEAR     31  27  85 W7        29.71F WCI  24
PIERRE         CLEAR     29  24  82 E3        29.72S
CUSTER         CLEAR     32  29  88 CALM      29.66F
ELLSWORTH AFB  CLEAR     31  30  96 W6        29.70F WCI  25
PHILIP         CLEAR     32  29  88 CALM      29.72R
PINE RIDGE     CLEAR     30  28  92 CALM      29.72F
SPEARFISH      FAIR      28  27  93 SE6       29.69F WCI  22
WINNER         FAIR      31  26  82 CALM      29.72
$$

SDZ004>011-016>023-039-040-270600-
NORTHEAST SOUTH DAKOTA

CITY           SKY/WX    TMP DP  RH WIND       PRES   REMARKS
ABERDEEN       CLOUDY    30  24  78 N14       29.73S WCI  19
WATERTOWN      CLOUDY    27  23  85 N13       29.66S WCI  16
BROOKINGS      CLOUDY    28  24  85 N14       29.67S WCI  17
SISSETON         N/A     29  26  89 N17       29.68F WCI  17
$$

SDZ017-020-022-023-036>040-048>070-270600-
SOUTHEAST SOUTH DAKOTA

CITY           SKY/WX    TMP DP  RH WIND       PRES   REMARKS
SIOUX FALLS    CLOUDY    32  26  78 N14       29.68F WCI  22
HURON          CLOUDY    31  26  82 NE13      29.73R WCI  21
CHAMBERLAIN    CLEAR     32  29  91 CALM      29.73S
MITCHELL       CLOUDY    33  27  78 N13       29.74R WCI  24
YANKTON        CLOUDY    34  25  69 NW13      29.71F WCI  25
$$

ABBREVIATIONS USED IN REMARKS
   TC - TEMPERATURE IN CELSIUS
  WCI - WIND CHILL INDEX
   HX - HEAT INDEX
  VSB - VISIBILITY





USA.gov is the U.S. government's official web portal to all federal, state and local government web resources and services.